Weather History for Hamilton Island, QU

Change the Weather History Date:

Thursday, April 18, 2013

  Actual Average Record
Temperature  
Mean Temperature 76 °F -  
Max Temperature 79 °F - - ()
Min Temperature 73 °F - - ()
Cooling Degree Days 11    
Growing Degree Days 26 (Base 50)    
Moisture  
Dew Point 73 °F    
Average Humidity 90    
Maximum Humidity 100    
Minimum Humidity 74    
Precipitation  
Precipitation 0.00 in - - ()
Sea Level Pressure  
Sea Level Pressure 29.94 in    
Wind  
Wind Speed 9 mph ()    
Max Wind Speed 13 mph    
Max Gust Speed -    
T = Trace of Precipitation, MM = Missing Value Source: Averaged Metar Reports

Daily Weather History Graph

Daily Weather History Graph

Search for Another Location

Airport:

Trip Planner

Search our weather history database for the weather conditions in past years. The results will help you decide how hot, cold, wet, or windy it might be!

Date:

Astronomy

Apr. 18, 2013 Rise Set
Actual Time 6:16 AM AEST 5:50 PM AEST
Civil Twilight 5:53 AM AEST 6:13 PM AEST
Nautical Twilight 5:27 AM AEST 6:38 PM AEST
Astronomical Twilight 5:02 AM AEST 7:04 PM AEST
Moon 12:22 PM AEST (4/18) 11:54 PM AEST (4/18)
Length of Visible Light 12h 19m
Length of Day
11h 34m
Waxing Crescent, 46% of the Moon is Illuminated
Apr 18
Waxing Crescent
Apr 18
First Quarter
Apr 26
Full
May 2
Last Quarter
May 10
New

Hourly Weather History & Observations

Time (AEST) Temp. Dew Point Humidity Pressure Visibility Wind Dir Wind Speed Gust Speed Precip Events Conditions
12:00 AM 75 °F 73 °F 92% 29.93 in - ESE 10.4 mph - -  
12:00 AM 75.2 °F 73.4 °F 94% 29.92 in - ESE 10.4 mph - N/A   Unknown
12:30 AM 75.2 °F 73.4 °F 94% 29.92 in - ESE 11.5 mph - N/A   Unknown
1:00 AM 75.2 °F 71.6 °F 89% 29.92 in - ESE 10.4 mph - N/A   Unknown
1:30 AM 75.2 °F 73.4 °F 94% 29.92 in - SE 8.1 mph - N/A   Unknown
2:00 AM 73.4 °F 73.4 °F 100% 29.92 in - SE 8.1 mph - N/A   Unknown
2:30 AM 73.4 °F 73.4 °F 100% 29.92 in - SE 6.9 mph - N/A   Unknown
3:00 AM 74 °F 72 °F 94% 29.90 in - SSE 8.1 mph - -  
3:00 AM 73.4 °F 73.4 °F 100% 29.89 in - SSE 8.1 mph - N/A   Unknown
3:30 AM 73.4 °F 73.4 °F 100% 29.89 in - SE 9.2 mph - N/A   Unknown
4:00 AM 73.4 °F 73.4 °F 100% 29.92 in - SE 9.2 mph - N/A   Unknown
4:30 AM 73.4 °F 73.4 °F 100% 29.92 in - SSE 9.2 mph - N/A   Unknown
5:00 AM 73.4 °F 73.4 °F 100% 29.92 in - South 9.2 mph - N/A   Unknown
5:30 AM 73.4 °F 73.4 °F 100% 29.92 in - South 10.4 mph - N/A   Unknown
6:00 AM 73.4 °F 73.4 °F 100% 29.92 in - South 9.2 mph - N/A   Unknown
6:30 AM 73.4 °F 73.4 °F 100% 29.95 in - South 10.4 mph - N/A   Unknown
7:00 AM 73.4 °F 73.4 °F 100% 29.95 in - South 10.4 mph - N/A   Unknown
7:30 AM 73.4 °F 73.4 °F 100% 29.98 in - South 10.4 mph - N/A   Unknown
8:00 AM 75.2 °F 73.4 °F 94% 29.98 in - South 11.5 mph - N/A   Unknown
8:30 AM 75.2 °F 71.6 °F 89% 29.98 in - South 10.4 mph - N/A   Unknown
9:00 AM 77 °F 73 °F 83% 30.00 in - South 9.2 mph - -  
9:00 AM 77.0 °F 73.4 °F 89% 29.98 in - South 9.2 mph - N/A   Unknown
9:30 AM 78.8 °F 73.4 °F 83% 29.98 in - SSE 9.2 mph - N/A   Unknown
10:00 AM 77.0 °F 73.4 °F 89% 29.98 in - SSE 11.5 mph - N/A   Unknown
10:30 AM 77.0 °F 73.4 °F 89% 29.98 in - SSE 11.5 mph - N/A   Unknown
11:00 AM 78.8 °F 73.4 °F 83% 29.98 in - SSE 11.5 mph - N/A   Unknown
11:30 AM 77.0 °F 73.4 °F 89% 29.95 in - SSE 10.4 mph - N/A   Unknown
12:00 PM 79 °F 74 °F 82% 29.96 in - SSE 11.5 mph - -  
12:00 PM 78.8 °F 75.2 °F 89% 29.95 in - SSE 11.5 mph - N/A   Unknown
12:30 PM 78.8 °F 73.4 °F 83% 29.95 in - SSE 10.4 mph - N/A   Unknown
1:00 PM 78.8 °F 75.2 °F 89% 29.92 in - SSE 9.2 mph - N/A   Unknown
1:30 PM 78.8 °F 73.4 °F 83% 29.92 in - SE 10.4 mph - N/A   Unknown
2:00 PM 78.8 °F 73.4 °F 83% 29.92 in - SE 9.2 mph - N/A   Unknown
2:30 PM 78.8 °F 73.4 °F 83% 29.92 in - SE 10.4 mph - N/A   Unknown
3:00 PM 78 °F 71 °F 74% 29.90 in - ESE 9.2 mph - -  
3:00 PM 78.8 °F 71.6 °F 78% 29.89 in - ESE 9.2 mph - N/A   Unknown
3:30 PM 78.8 °F 71.6 °F 78% 29.89 in - East 11.5 mph - N/A   Unknown
4:00 PM 77.0 °F 71.6 °F 83% 29.89 in - East 12.7 mph - N/A   Unknown
4:30 PM 77.0 °F 71.6 °F 83% 29.92 in - East 12.7 mph - N/A   Unknown
5:00 PM 77.0 °F 71.6 °F 83% 29.92 in - East 12.7 mph - N/A   Unknown
5:30 PM 75.2 °F 71.6 °F 89% 29.92 in - East 12.7 mph - N/A   Unknown
6:00 PM 76 °F 72 °F 84% 29.93 in - East 11.5 mph - -  
6:00 PM 75.2 °F 71.6 °F 89% 29.92 in - East 11.5 mph - N/A   Unknown
6:30 PM 75.2 °F 71.6 °F 89% 29.95 in - East 9.2 mph - N/A   Unknown
7:00 PM 75.2 °F 71.6 °F 89% 29.95 in - East 11.5 mph - N/A   Unknown
7:30 PM 75.2 °F 71.6 °F 89% 29.95 in - East 10.4 mph - N/A   Unknown
8:00 PM 75.2 °F 71.6 °F 89% 29.98 in - East 9.2 mph - N/A   Unknown
8:30 PM 75.2 °F 71.6 °F 89% 29.98 in - East 8.1 mph - N/A   Unknown
9:00 PM 75 °F 72 °F 87% 29.99 in - East 8.1 mph - -  
9:00 PM 75.2 °F 71.6 °F 89% 29.98 in - East 8.1 mph - N/A   Unknown
9:30 PM 75.2 °F 71.6 °F 89% 29.98 in - East 8.1 mph - N/A   Unknown
10:00 PM 73.4 °F 71.6 °F 94% 29.98 in - NE 3.5 mph - N/A   Unknown
10:30 PM 73.4 °F 71.6 °F 94% 29.98 in - Calm Calm - N/A   Unknown
11:00 PM 73.4 °F 73.4 °F 100% 29.98 in - Calm Calm - N/A   Unknown
11:30 PM 73.4 °F 73.4 °F 100% 29.95 in - Calm Calm - N/A   Unknown